Starlink 32040

operational
NORAD ID: 60109 Int'l Des: 2024-117 Owner: SPXS Country: US Constellation: starlink
LEOCIRCULAR

Starlink 32040について

説明を読み込み中...

リアルタイム位置

3D地球を読み込み中...

次回通過

高度履歴

Altitude vs Time

uPlot chart will show altitude changes over time

軌道要素

1 60109U 24117U 25351.34179910 -.00001832 00000-0 -49758-4 0 9994
2 60109 53.1605 59.2674 0001082 74.3013 285.8108 15.30190818 84280
Epoch: Dec 17, 2025 • Age: 4 hours

現在のステータス

高度 491.1 km
速度 7.62 km/s
衛星直下点 -45.24°S, 93.79°E
打ち上げ日 Jun 23, 2024
運用期間 1.4 years
タイプ internet

技術仕様

分類 Payload
質量 730.00 kg
乾燥質量 700.00 kg
総質量 730.00 kg
長さ 0.30 m
直径 4.10 m
スパン 29.00 m
形状 Box + pan
製造者 SPXS
バスタイプ Starlink V2M
フェーズステータス In Orbit
所有者/国 SPXS/US

大規模コンステレーション

Loading constellations...